Regional Weather Roundup
Issued by NWS

Home | Current Version | Previous Version | Graphics & Text | Print | Product List | Glossary On
Versions: 1 2 3 4 5 6 7 8 9 10 11 12 13 14 15 16 17 18 19 20 21 22 23 24 25 26 27 28 29 30 31 32 33 34 35 36 37 38 39 40 41 42 43 44 45 46 47 48 49 50
000
ASUS43 KTOP 221159
RWRKS

WEATHER ROUNDUP FOR KANSAS
NATIONAL WEATHER SERVICE GOODLAND KS
600 AM CST WED FEB 22 2017

NOTE:  "FAIR" INDICATES FEW OR NO CLOUDS BELOW 12,000 FEET WITH NO
SIGNIFICANT WEATHER AND/OR OBSTRUCTIONS TO VISIBILITY.

KSZ001>006-013>018-027>032-041>047-221300-
NORTHWEST KANSAS

CITY           SKY/WX    TMP DP  RH WIND       PRES   REMARKS
GOODLAND       CLOUDY    50  19  29 SW15      29.80S
6HR MIN TEMP:  50; 6HR MAX TEMP:  66;

HAYS             N/A     42  26  53 S7        29.77S
HILL CITY      MOCLDY    43  24  47 CALM      29.75R
6HR MIN TEMP:  43; 6HR MAX TEMP:  60;

RUSSELL        CLOUDY    46  30  53 SW14      29.75S
6HR MIN TEMP:  46; 6HR MAX TEMP:  51;

$$

KSZ061>065-074>080-084>089-221300-
SOUTHWEST KANSAS

CITY           SKY/WX    TMP DP  RH WIND       PRES   REMARKS
DODGE CITY     CLOUDY    37  24  59 S8        29.81S
6HR MIN TEMP:  37; 6HR MAX TEMP:  50;

ELKHART          N/A     48  14  25 W10         N/A
GARDEN CITY    CLOUDY    42  23  46 W8        29.80F
6HR MIN TEMP:  37; 6HR MAX TEMP:  50;

GREAT BEND     CLOUDY    42  31  64 SW5       29.79R
LIBERAL        CLOUDY    34  16  47 N7        29.85S
$$

KSZ066>073-081>083-090>101-221300-
SOUTHEAST KANSAS

CITY           SKY/WX    TMP DP  RH WIND       PRES   REMARKS
CHANUTE        CLEAR     46  39  76 SW8       29.84S
6HR MIN TEMP:  39; 6HR MAX TEMP:  48;

COFFEYVILLE    CLEAR     41  39  93 SW5       29.86R
6HR MIN TEMP:  37; 6HR MAX TEMP:  44;

HUTCHINSON     CLEAR     45  35  68 SE7       29.79F
6HR MIN TEMP:  43; 6HR MAX TEMP:  51;

MEDICINE LODGE   N/A     41  34  76 CALM      29.82S
NEWTON         CLOUDY    47  36  65 S15       29.81F
PARSONS        CLEAR     38  37  97 CALM      29.86S FOG
6HR MIN TEMP:  37; 6HR MAX TEMP:  42;

WICHITA INTL   CLEAR     40  35  83 S6        29.82F
6HR MIN TEMP:  38; 6HR MAX TEMP:  45;

WICHITA JABRA  CLEAR     46  37  71 S12       29.82F
6HR MIN TEMP:  45; 6HR MAX TEMP:  52;

WINFIELD       CLEAR     44  36  73 SE5       29.85S
6HR MIN TEMP:  37; 6HR MAX TEMP:  49;

$$

KSZ007>012-019>026-033>040-048>060-102>105-221300-
NORTHEAST KANSAS

CITY           SKY/WX    TMP DP  RH WIND       PRES   REMARKS
CONCORDIA      CLOUDY    52  35  52 S22       29.70F
6HR MIN TEMP:  50; 6HR MAX TEMP:  53;

EMPORIA        CLOUDY    46  36  68 S10       29.81S
6HR MIN TEMP:  41; 6HR MAX TEMP:  49;

LAWRENCE       PTCLDY    37  32  82 E3        29.81F
6HR MIN TEMP:  33; 6HR MAX TEMP:  42;

MANHATTAN      PTCLDY    47  34  60 SW6       29.76F
6HR MIN TEMP:  40; 6HR MAX TEMP:  50;

OLATHE IND     CLEAR     40  36  86 S7        29.82F
6HR MIN TEMP:  39; 6HR MAX TEMP:  45;

OLATHE EXE     CLEAR     46  38  73 S5        29.81F
6HR MIN TEMP:  44; 6HR MAX TEMP:  50;

SALINA         PTCLDY    55  35  47 S14       29.75F
6HR MIN TEMP:  49; 6HR MAX TEMP:  56;

TOPEKA BILLARD PTCLDY    47  34  60 W5        29.79F
6HR MIN TEMP:  40; 6HR MAX TEMP:  50;

TOPEKA FORBES  PTCLDY    45  34  65 S8        29.79F
6HR MIN TEMP:  43; 6HR MAX TEMP:  49;

$$



USA.gov is the U.S. government's official web portal to all federal, state and local government web resources and services.